Weather History for Marathon, FL

Change the Weather History Date:

Tuesday, February 5, 2013

  Actual Average Record
Temperature  
Mean Temperature 72 °F 71 °F  
Max Temperature 80 °F 76 °F 85 °F (2014)
Min Temperature 63 °F 66 °F 43 °F (2009)
Degree Days  
Heating Degree Days 0 0  
Month to date heating degree days 0 1  
Since 1 July heating degree days 6 60  
Cooling Degree Days 7 6  
Month to date cooling degree days 23 30  
Year to date cooling degree days 351 211  
Growing Degree Days 21 (Base 50)    
Moisture  
Dew Point 60 °F    
Average Humidity 66    
Maximum Humidity 78    
Minimum Humidity 54    
Precipitation  
Precipitation 0.00 in 0.07 in 0.26 in (2012)
Month to date precipitation 0.00 0.31  
Year to date precipitation 0.54 1.92  
Snow  
Snow 0.00 in - - ()
Month to date snowfall 0.0  
Since 1 July snowfall 0.0  
Snow Depth 0.00 in    
Sea Level Pressure  
Sea Level Pressure 30.04 in    
Wind  
Wind Speed 5 mph (ENE)    
Max Wind Speed 10 mph    
Max Gust Speed 14 mph    
Visibility 10 miles    
Events      
T = Trace of Precipitation, MM = Missing Value Source: NWS Daily Summary

Daily Weather History Graph

Daily Weather History Graph

Search for Another Location

Airport:

Trip Planner

Search our weather history database for the weather conditions in past years. The results will help you decide how hot, cold, wet, or windy it might be!

Date:

Astronomy

Feb. 05, 2013 Rise Set
Actual Time 7:04 AM EST 6:12 PM EST
Civil Twilight 6:40 AM EST 6:36 PM EST
Nautical Twilight 6:13 AM EST 7:03 PM EST
Astronomical Twilight 5:46 AM EST 7:30 PM EST
Moon 2:33 AM EST (2/5) 1:39 PM EST (2/5)
Length of Visible Light 11h 55m
Length of Day
11h 08m
Waning Crescent, 27% of the Moon is Illuminated
Feb 5
Waning Crescent
Feb 10
New
Feb 17
First Quarter
Feb 25
Full
Mar 4
Last Quarter

Hourly Weather History & Observations

Time (EST) Temp. Dew Point Humidity Pressure Visibility Wind Dir Wind Speed Gust Speed Precip Events Conditions
12:53 AM 68.0 °F 54.0 °F 61% 30.06 in 10.0 mi East 3.5 mph - N/A   Partly Cloudy
1:53 AM 64.9 °F 54.0 °F 68% 30.05 in 10.0 mi Calm Calm - N/A   Scattered Clouds
2:53 AM 63.0 °F 54.0 °F 72% 30.03 in 10.0 mi Calm Calm - N/A   Mostly Cloudy
3:53 AM 66.0 °F 59.0 °F 78% 30.03 in 10.0 mi NE 4.6 mph - N/A   Mostly Cloudy
4:53 AM 66.9 °F 57.9 °F 73% 30.01 in 10.0 mi ENE 5.8 mph - N/A   Clear
5:53 AM 66.9 °F 59.0 °F 76% 30.03 in 10.0 mi ENE 5.8 mph - N/A   Clear
6:53 AM 66.0 °F 57.9 °F 75% 30.04 in 10.0 mi ENE 5.8 mph - N/A   Clear
7:53 AM 66.9 °F 59.0 °F 76% 30.04 in 10.0 mi ENE 5.8 mph - N/A   Clear
8:53 AM 72.0 °F 61.0 °F 68% 30.06 in 10.0 mi NE 6.9 mph - N/A   Clear
9:53 AM 73.0 °F 61.0 °F 66% 30.07 in 10.0 mi NNE 8.1 mph - N/A   Clear
10:53 AM 72.0 °F 60.1 °F 66% 30.08 in 10.0 mi NE 9.2 mph - N/A   Clear
11:53 AM 75.0 °F 62.1 °F 64% 30.07 in 10.0 mi NE 6.9 mph - N/A   Mostly Cloudy
12:53 PM 75.9 °F 61.0 °F 60% 30.05 in 10.0 mi NE 6.9 mph - N/A   Scattered Clouds
1:53 PM 79.0 °F 60.1 °F 52% 30.03 in 10.0 mi East 5.8 mph - N/A   Clear
2:53 PM 78.1 °F 60.1 °F 54% 30.02 in 10.0 mi ESE 5.8 mph - N/A   Mostly Cloudy
3:53 PM 77.0 °F 61.0 °F 58% 30.01 in 10.0 mi East 6.9 mph - N/A   Mostly Cloudy
4:53 PM 75.9 °F 61.0 °F 60% 30.01 in 10.0 mi East 5.8 mph - N/A   Clear
5:53 PM 75.0 °F 61.0 °F 62% 30.01 in 10.0 mi East 4.6 mph - N/A   Mostly Cloudy
6:53 PM 73.9 °F 62.1 °F 66% 30.01 in 10.0 mi East 3.5 mph - N/A   Clear
7:53 PM 73.0 °F 62.1 °F 68% 30.03 in 10.0 mi ESE 3.5 mph - N/A   Clear
8:53 PM 72.0 °F 62.1 °F 71% 30.04 in 10.0 mi East 3.5 mph - N/A   Clear
9:53 PM 73.0 °F 62.1 °F 68% 30.04 in 10.0 mi East 3.5 mph - N/A   Clear
10:53 PM 72.0 °F 63.0 °F 73% 30.05 in 10.0 mi Calm Calm - N/A   Clear
11:53 PM 72.0 °F 64.0 °F 76% 30.05 in 10.0 mi ESE 3.5 mph - N/A   Clear